TimeEST,TemperatureF,Dew PointF,Humidity,Sea Level PressureIn,VisibilityMPH,Wind Direction,Wind SpeedMPH,Gust SpeedMPH,PrecipitationIn,Events,Conditions,WindDirDegrees,DateUTC
12:53 AM,72.0,71.1,97,30.12,10.0,Calm,Calm,-,N/A,,Partly Cloudy,0,2014-02-02 05:53:00
1:53 AM,73.0,71.1,93,30.10,10.0,ESE,9.2,-,0.01,,Partly Cloudy,120,2014-02-02 06:53:00
2:53 AM,72.0,70.0,93,30.09,10.0,SE,11.5,-,N/A,,Clear,130,2014-02-02 07:53:00
3:53 AM,72.0,69.1,91,30.09,10.0,SE,10.4,-,N/A,,Partly Cloudy,130,2014-02-02 08:53:00
4:53 AM,71.1,68.0,90,30.09,10.0,SE,8.1,-,N/A,,Partly Cloudy,130,2014-02-02 09:53:00
5:53 AM,72.0,69.1,91,30.11,10.0,SE,8.1,-,N/A,,Partly Cloudy,130,2014-02-02 10:53:00
6:53 AM,71.1,68.0,90,30.12,10.0,SE,9.2,-,N/A,,Partly Cloudy,130,2014-02-02 11:53:00
7:53 AM,72.0,68.0,87,30.13,10.0,ESE,10.4,-,N/A,,Partly Cloudy,120,2014-02-02 12:53:00
8:53 AM,75.0,68.0,79,30.14,10.0,ESE,12.7,-,N/A,,Partly Cloudy,120,2014-02-02 13:53:00
9:53 AM,75.0,68.0,79,30.16,10.0,ESE,11.5,-,N/A,,Mostly Cloudy,120,2014-02-02 14:53:00
10:46 AM,69.8,69.8,100,30.17,2.0,SE,12.7,-,0.01,Rain,Light Rain,130,2014-02-02 15:46:00
10:53 AM,70.0,70.0,100,30.17,3.0,SE,5.8,-,0.02,Rain,Light Rain,130,2014-02-02 15:53:00
11:53 AM,73.0,69.1,87,30.14,10.0,Calm,Calm,-,0.00,,Overcast,0,2014-02-02 16:53:00
12:53 PM,77.0,70.0,79,30.10,10.0,SE,12.7,-,N/A,,Scattered Clouds,130,2014-02-02 17:53:00
1:16 PM,78.8,69.8,74,30.10,10.0,ESE,10.4,-,N/A,,Mostly Cloudy,110,2014-02-02 18:16:00
1:53 PM,78.1,70.0,76,30.08,10.0,ESE,11.5,-,N/A,,Mostly Cloudy,120,2014-02-02 18:53:00
2:00 PM,77.0,69.8,78,30.08,10.0,ESE,13.8,-,N/A,,Mostly Cloudy,120,2014-02-02 19:00:00
2:53 PM,77.0,69.1,76,30.06,10.0,ESE,13.8,-,N/A,,Scattered Clouds,110,2014-02-02 19:53:00
3:53 PM,75.9,71.1,85,30.06,10.0,East,12.7,-,N/A,,Scattered Clouds,100,2014-02-02 20:53:00
4:53 PM,75.9,71.1,85,30.06,10.0,East,10.4,-,N/A,,Partly Cloudy,100,2014-02-02 21:53:00
5:53 PM,75.0,71.1,87,30.07,10.0,East,15.0,19.6,N/A,,Partly Cloudy,100,2014-02-02 22:53:00
6:53 PM,73.9,72.0,93,30.07,10.0,East,11.5,-,0.00,Rain,Light Rain,100,2014-02-02 23:53:00
7:53 PM,73.9,71.1,91,30.08,10.0,ESE,10.4,-,N/A,,Scattered Clouds,110,2014-02-03 00:53:00
8:53 PM,73.9,71.1,91,30.09,10.0,ESE,11.5,-,N/A,,Scattered Clouds,110,2014-02-03 01:53:00
9:53 PM,73.9,71.1,91,30.09,10.0,ESE,11.5,-,N/A,,Mostly Cloudy,110,2014-02-03 02:53:00
10:53 PM,73.9,71.1,91,30.09,10.0,ESE,11.5,-,N/A,,Scattered Clouds,110,2014-02-03 03:53:00
11:53 PM,73.9,70.0,87,30.08,10.0,ESE,16.1,-,N/A,,Scattered Clouds,120,2014-02-03 04:53:00